Regional Weather Roundup
Issued by NWS

Home | Current Version | Previous Version | Text Only | Print | Product List | Glossary Off
Versions: 1 2 3 4 5 6 7 8 9 10 11 12 13 14 15 16 17 18 19 20 21 22 23 24 25 26 27 28 29 30 31 32 33 34 35 36 37 38 39 40 41 42 43 44 45 46 47 48 49 50

000
ASUS43 KBIS 110602
RWRND

NORTH DAKOTA REGIONAL WEATHER ROUNDUP
NATIONAL WEATHER SERVICE BISMARCK ND
1200 AM CST SUN DEC 11 2016

NOTE: "FAIR" INDICATES FEW OR NO CLOUDS BELOW 12,000 FEET WITH NO
SIGNIFICANT WEATHER AND/OR OBSTRUCTIONS TO VISIBILITY.


NDZ001>003-009>011-017-110700-
NORTHWEST NORTH DAKOTA

CITY           SKY/WX    TMP DP  RH WIND       PRES   REMARKS
WILLISTON      LGT SNOW   0  -5  79 SE12      29.92F WCI -17
6HR MIN TEMP:   0; 6HR MAX TEMP:   3; 6HR PCP:  0.19;

MINOT          LGT SNOW  -2  -7  79 NE7       30.05R WCI -15
MINOT AFB      LGT SNOW  -4  -8  84 E8        30.05R WCI -19
$$

NDZ018>021-031>035-040>046-110700-
SOUTHWEST NORTH DAKOTA

CITY           SKY/WX    TMP DP  RH WIND       PRES   REMARKS
BISMARCK       LGT SNOW   0  -4  83 E9        30.01R FOG     WCI -15
6HR MIN TEMP:  -3; 6HR MAX TEMP:   1; 6HR PCP:  0.02;

DICKINSON      LGT SNOW  -1  -6  79 E10       29.83S WCI -17
GARRISON         N/A     -2  -6  83 E7        30.00R WCI -15
6HR MIN TEMP:  -3; 6HR MAX TEMP:  -1; 6HR PCP:  0.06;

HETTINGER ARPT CLOUDY     0  -5  79 E3        29.84F
$$

NDZ004>008-012>016-024-026-027-054-110700-
NORTHEAST NORTH DAKOTA

CITY           SKY/WX    TMP DP  RH WIND       PRES   REMARKS
GRAND FORKS    CLOUDY   -11 -16  78 N6        30.19S WCI -25
DEVILS LAKE    CLOUDY    -5  -9  83 E9        30.10F WCI -22
$$

NDZ022-023-025-028>030-036>039-047>053-110700-
SOUTHEAST NORTH DAKOTA

CITY           SKY/WX    TMP DP  RH WIND       PRES   REMARKS
FARGO          CLOUDY     7   0  73 NE9       30.12F WCI  -7
6HR MIN TEMP:   2; 6HR MAX TEMP:   7; 6HR PCP: TRACE;

JAMESTOWN      FLURRIES  -1  -5  82 E12       30.02F WCI -18
$$




USA.gov is the U.S. government's official web portal to all federal, state and local government web resources and services.